USA 342

Last updated on Wed Dec 17 2025 00:02:54 GMT+0000 (Coordinated Universal Time)

1 55263U 23008A 25349.27719235 .00000000 00000+0 00000+0 0 9991 2 55263 0.0161 352.5577 0000166 214.3218 1.0426 1.00270534 10678
UTC large
Height (km)
Speed (km/s)
/
Latitude / Longitude
Inclination (degrees)
Orbital Period (minutes)
Azimuth
Elevation
Range (km)
Doppler Factor

Next 0 passes for location: London (51.5072 / 0.1276)

Sorry there are no passes over London.